Brunswick, NC

3:19 AM EST on February 10, 2016 (GMT -0500)
Columbus County Municipal

Weather History for KCPC - January, 2013

Change the Weather History Date:

Saturday, January 12, 2013

  Actual Average (KLBT) Record (KLBT)
Temperature  
Mean Temperature 65 °F 43 °F  
Max Temperature 79 °F 53 °F 78 °F (2013)
Min Temperature 51 °F 33 °F 27 °F (2002)
Degree Days  
Heating Degree Days 0 22  
Month to date heating degree days 263  
Since 1 July heating degree days 1313  
Cooling Degree Days 0 0  
Month to date cooling degree days 0  
Year to date cooling degree days 0  
Growing Degree Days 15 (Base 50)    
Moisture  
Dew Point 57 °F    
Average Humidity 83    
Maximum Humidity 100    
Minimum Humidity 47    
Precipitation  
Precipitation 0.00 in 0.09 in 1.85 in (2015)
Month to date precipitation 1.03  
Year to date precipitation 1.03  
Sea Level Pressure  
Sea Level Pressure 30.14 in    
Wind  
Wind Speed 3 mph (SW)    
Max Wind Speed 9 mph    
Max Gust Speed -    
Visibility 8 miles    
Events Fog    
T = Trace of Precipitation, MM = Missing Value Source: NWS Daily Summary

Daily Weather History Graph

Daily Weather History Graph

Search for Another Location

Airport or City:

Trip Planner

Search our weather history database for the weather conditions in past years. The results will help you decide how hot, cold, wet, or windy it might be!

Date:

Astronomy

Jan. 12, 2013 Rise Set
Actual Time 7:21 AM EST 5:25 PM EST
Civil Twilight 6:53 AM EST 5:53 PM EST
Nautical Twilight 6:22 AM EST 6:23 PM EST
Astronomical Twilight 5:52 AM EST 6:54 PM EST
Moon 7:43 AM EST (1/12) 6:47 PM EST (1/12)
Length of Visible Light 10h 59m
Length of Day
10h 04m
New Moon, 1% of the Moon is Illuminated
Jan 12
New Moon
Jan 18
First Quarter
Jan 26
Full
Feb 3
Last Quarter
Feb 10
New

Hourly Weather History & Observations

Time (EST) Temp. Dew Point Humidity Pressure Visibility Wind Dir Wind Speed Gust Speed Precip Events Conditions
12:15 AM 57.6 °F 57.2 °F 99% 30.17 in 7.0 mi SSW 5.8 mph - N/A   Clear
12:35 AM 57.6 °F 57.2 °F 99% 30.17 in 7.0 mi SSW 4.6 mph - N/A   Scattered Clouds
12:55 AM 57.4 °F 56.8 °F 98% 30.16 in 7.0 mi SSW 4.6 mph - N/A   Clear
1:15 AM 57.2 °F 56.3 °F 97% 30.17 in 10.0 mi SSW 4.6 mph - N/A   Clear
1:35 AM 57.2 °F 56.3 °F 97% 30.16 in 10.0 mi SSW 5.8 mph - N/A   Clear
1:55 AM 56.3 °F 55.0 °F 96% 30.16 in 10.0 mi SSW 5.8 mph - N/A   Clear
2:15 AM 56.7 °F 55.6 °F 96% 30.16 in 10.0 mi SW 5.8 mph - N/A   Clear
2:35 AM 55.4 °F 54.3 °F 96% 30.16 in 10.0 mi SSW 4.6 mph - N/A   Clear
2:55 AM 55.4 °F 54.5 °F 97% 30.16 in 7.0 mi SW 4.6 mph - N/A   Scattered Clouds
3:15 AM 56.3 °F 55.4 °F 97% 30.16 in 10.0 mi Calm Calm - N/A   Mostly Cloudy
3:35 AM 56.3 °F 55.2 °F 96% 30.16 in 10.0 mi SW 3.5 mph - N/A   Scattered Clouds
3:55 AM 56.1 °F 55.0 °F 96% 30.16 in 10.0 mi Calm Calm - N/A   Clear
4:35 AM 55.0 °F 54.5 °F 98% 30.15 in 7.0 mi SSW 4.6 mph - N/A   Clear
4:55 AM 55.6 °F 55.0 °F 98% 30.14 in 7.0 mi SW 4.6 mph - N/A   Clear
5:15 AM 55.9 °F 55.4 °F 98% 30.14 in 7.0 mi Calm Calm - N/A   Clear
5:35 AM 55.8 °F 55.0 °F 97% 30.15 in 7.0 mi Calm Calm - N/A   Clear
5:55 AM 54.7 °F 53.8 °F 97% 30.15 in 2.0 mi Calm Calm - N/A   Mist
6:15 AM 54.3 °F 53.8 °F 98% 30.16 in 0.5 mi Calm Calm - N/A Fog Fog
6:35 AM 52.5 °F 52.0 °F 98% 30.16 in 0.2 mi Calm Calm - N/A Fog Fog
6:55 AM 52.3 °F 52.0 °F 99% 30.16 in 0.2 mi Calm Calm - N/A Fog Fog
7:15 AM 51.6 °F 51.4 °F 99% 30.17 in 0.2 mi Calm Calm - N/A Fog Fog
7:35 AM 52.9 °F 52.7 °F 99% 30.17 in 0.2 mi Calm Calm - N/A Fog Fog
7:55 AM 53.4 °F 53.2 °F 99% 30.17 in 1.2 mi Calm Calm - N/A   Mist
8:15 AM 54.0 °F 53.8 °F 99% 30.17 in 1.5 mi SW 3.5 mph - N/A   Mist
8:35 AM 55.4 °F 55.4 °F 100% 30.18 in 5.0 mi SSW 4.6 mph - N/A   Scattered Clouds
8:55 AM 56.1 °F 55.9 °F 99% 30.19 in 10.0 mi SW 4.6 mph - N/A   Scattered Clouds
9:15 AM 56.1 °F 55.8 °F 99% 30.19 in 10.0 mi SW 3.5 mph - N/A   Clear
9:35 AM 57.0 °F 55.6 °F 95% 30.19 in 10.0 mi SW 5.8 mph - N/A   Clear
9:55 AM 58.6 °F 54.3 °F 86% 30.19 in 10.0 mi SW 3.5 mph - N/A   Clear
10:15 AM 59.5 °F 54.5 °F 83% 30.19 in 10.0 mi SSW 4.6 mph - N/A   Clear
10:55 AM 60.8 °F 54.0 °F 78% 30.18 in 10.0 mi WSW 3.5 mph - N/A   Clear
11:15 AM 63.5 °F 55.6 °F 75% 30.17 in 10.0 mi West 3.5 mph - N/A   Clear
11:35 AM 65.1 °F 55.9 °F 72% 30.16 in 10.0 mi West 3.5 mph - N/A   Clear
11:55 AM 68.5 °F 57.9 °F 69% 30.16 in 10.0 mi West 4.6 mph - N/A   Clear
12:15 PM 69.3 °F 57.4 °F 66% 30.15 in 10.0 mi West 4.6 mph - N/A   Clear
12:55 PM 72.7 °F 57.7 °F 59% 30.13 in 10.0 mi WSW 4.6 mph - N/A   Clear
1:15 PM 75.2 °F 58.1 °F 55% 30.12 in 10.0 mi WSW 4.6 mph - N/A   Clear
1:35 PM 77.2 °F 59.2 °F 54% 30.12 in 10.0 mi WNW 3.5 mph - N/A   Clear
1:55 PM 78.1 °F 58.5 °F 51% 30.12 in 10.0 mi SSW 9.2 mph - N/A   Clear
2:15 PM 78.4 °F 56.5 °F 47% 30.11 in 10.0 mi SW 8.1 mph - N/A   Clear
2:35 PM 79.0 °F 57.6 °F 48% 30.11 in 10.0 mi SW 8.1 mph - N/A   Clear
2:55 PM 78.8 °F 57.4 °F 48% 30.11 in 10.0 mi SW 6.9 mph - N/A   Clear
3:15 PM 79.2 °F 57.6 °F 47% 30.11 in 10.0 mi West 3.5 mph - N/A   Clear
3:35 PM 79.2 °F 57.6 °F 47% 30.11 in 10.0 mi SW 5.8 mph - N/A   Clear
3:55 PM 78.8 °F 57.2 °F 47% 30.11 in 10.0 mi WSW 5.8 mph - N/A   Clear
4:15 PM 78.4 °F 57.2 °F 48% 30.12 in 10.0 mi Calm Calm - N/A   Clear
4:35 PM 77.9 °F 58.3 °F 51% 30.12 in 10.0 mi SW 4.6 mph - N/A   Clear
4:55 PM 76.6 °F 58.8 °F 54% 30.11 in 10.0 mi SW 3.5 mph - N/A   Clear
5:15 PM 74.7 °F 59.2 °F 58% 30.12 in 10.0 mi Calm Calm - N/A   Clear
5:35 PM 72.7 °F 60.1 °F 64% 30.12 in 10.0 mi Calm Calm - N/A   Clear
5:55 PM 70.7 °F 60.8 °F 71% 30.12 in 10.0 mi Calm Calm - N/A   Clear
6:15 PM 67.5 °F 60.8 °F 79% 30.12 in 10.0 mi Calm Calm - N/A   Clear
6:35 PM 68.0 °F 60.8 °F 78% 30.12 in 10.0 mi Calm Calm - N/A   Clear
6:55 PM 66.7 °F 60.6 °F 81% 30.12 in 10.0 mi Calm Calm - N/A   Clear
7:15 PM 64.6 °F 59.9 °F 85% 30.12 in 10.0 mi Calm Calm - N/A   Clear
7:35 PM 62.8 °F 59.5 °F 89% 30.11 in 10.0 mi Calm Calm - N/A   Clear
7:55 PM 63.9 °F 59.9 °F 87% 30.11 in 10.0 mi Calm Calm - N/A   Clear
8:15 PM 64.2 °F 59.5 °F 85% 30.11 in 10.0 mi Calm Calm - N/A   Clear
8:35 PM 63.7 °F 59.9 °F 87% 30.11 in 10.0 mi Calm Calm - N/A   Clear
8:55 PM 62.6 °F 59.4 °F 89% 30.11 in 10.0 mi Calm Calm - N/A   Clear
9:15 PM 61.2 °F 58.5 °F 91% 30.12 in 10.0 mi Calm Calm - N/A   Clear
9:35 PM 60.1 °F 58.3 °F 94% 30.11 in 10.0 mi Calm Calm - N/A   Clear
9:55 PM 58.6 °F 57.2 °F 95% 30.11 in 10.0 mi Calm Calm - N/A   Clear
10:15 PM 59.2 °F 58.1 °F 96% 30.11 in 10.0 mi Calm Calm - N/A   Clear
10:35 PM 58.1 °F 56.8 °F 96% 30.12 in 10.0 mi Calm Calm - N/A   Clear
10:55 PM 57.4 °F 56.1 °F 96% 30.12 in 10.0 mi Calm Calm - N/A   Clear
11:15 PM 57.0 °F 56.1 °F 97% 30.12 in 7.0 mi SW 3.5 mph - N/A   Clear
11:35 PM 57.2 °F 56.3 °F 97% 30.12 in 7.0 mi Calm Calm - N/A   Clear
11:55 PM 57.4 °F 56.3 °F 96% 30.12 in 10.0 mi SW 3.5 mph - N/A   Clear